Location: �terpigny
(49.8910°N, 2.9249°E)
Time: 11:03:25
(UTC+00:00)

Cosmos 1892 - Pass Details

Date: 24 October 2021
Orbit: 501 x 522 km, 82.5° (Epoch: 30 November)

Event Time Altitude Azimuth Distance (km) Brightness Sun altitude
Rises 17:09:21 0° 6° (N) 2,621 6.1 -5.5°
Reaches altitude 10° 17:12:27 10° 33° (NNE) 1,725 4.9 -6.0°
Maximum altitude 17:14:23 13° 64° (ENE) 1,513 4.4 -6.3°
Drops below altitude 10° 17:16:18 10° 95° (E) 1,715 4.7 -6.6°
Enters shadow 17:18:19 - 116° (ESE) 2,248 5.5 -6.9°
